Date,TemperatureHighF,TemperatureAvgF,TemperatureLowF,DewpointHighF,DewpointAvgF,DewpointLowF,HumidityHigh,HumidityAvg,HumidityLow,PressureMaxIn,PressureMinIn,WindSpeedMaxMPH,WindSpeedAvgMPH,GustSpeedMaxMPH,PrecipitationSumIn
2013-3-1,28.1,24.9,23.2,25.3,20.8,19.0,92,84,81,30.18,30.02,9,5,16,0.00
2013-3-2,23.9,22.5,18.1,19.7,18.5,14.9,90,84,81,30.15,30.12,7,4,13,0.00
2013-3-3,25.6,20.1,12.7,18.6,14.9,10.0,90,80,69,30.12,30.07,9,3,17,0.01
2013-3-4,31.0,19.6,8.5,18.0,13.3,5.9,92,77,54,30.22,30.12,6,1,8,0.02
2013-3-5,38.4,25.9,12.8,26.4,20.1,10.4,92,79,58,30.20,29.91,5,2,14,0.00
2013-3-6,36.0,30.9,25.1,29.7,26.7,22.0,90,84,76,30.26,29.94,6,3,12,0.00
2013-3-7,32.5,29.6,19.6,29.2,24.8,16.5,93,83,64,30.45,30.25,7,2,14,0.02
2013-3-8,43.4,28.4,15.3,29.9,22.2,13.0,94,79,55,30.56,30.45,4,1,7,0.00
2013-3-9,43.8,35.3,24.5,32.8,28.1,22.2,93,76,59,30.46,30.06,9,3,16,0.00
2013-3-10,57.8,50.2,40.0,45.7,39.1,32.5,77,66,56,30.07,29.80,10,4,19,0.00
2013-3-11,56.2,48.9,36.5,48.0,43.7,32.8,95,83,56,29.82,29.46,12,6,21,0.45
2013-3-12,36.5,33.3,28.9,33.2,28.6,24.3,89,83,70,29.94,29.67,10,5,16,0.00
2013-3-13,31.8,27.3,22.1,26.9,20.4,14.9,92,76,56,30.25,29.90,11,6,24,0.01
2013-3-14,38.4,29.1,20.4,23.4,18.9,14.6,82,66,51,30.31,30.12,7,3,14,0.01
2013-3-15,37.7,33.7,28.2,33.2,28.9,19.2,95,83,61,30.12,29.88,7,3,13,0.04
2013-3-16,32.9,27.6,23.5,31.6,24.7,20.3,95,89,75,30.08,29.82,7,2,15,0.08
2013-3-17,32.1,25.1,19.1,23.6,16.3,11.9,86,70,50,30.33,30.08,7,3,13,0.07
2013-3-18,33.7,28.0,18.7,32.2,24.1,13.1,95,85,77,30.26,29.60,9,4,22,0.11
2013-3-19,33.7,25.0,21.8,30.9,19.9,15.9,91,81,71,29.97,29.63,14,8,21,0.00
2013-3-20,26.8,22.4,15.7,18.2,14.9,10.9,81,73,59,30.00,29.93,10,6,19,0.00
2013-3-21,29.3,23.3,14.8,25.0,18.6,10.6,98,82,71,29.99,29.90,8,5,15,0.01
2013-3-22,37.5,28.9,24.3,24.9,20.9,17.8,83,72,58,30.08,29.98,8,4,14,0.01
2013-3-23,33.9,29.1,23.8,25.6,23.3,20.5,90,79,69,30.16,30.06,5,1,9,0.00
2013-3-24,37.8,28.1,19.7,28.6,23.0,17.5,94,82,59,30.12,29.73,6,2,16,0.00
2013-3-25,38.0,33.4,29.7,30.1,26.8,24.3,82,76,67,29.97,29.65,9,5,17,0.00
2013-3-26,42.7,35.4,31.4,33.2,29.6,27.2,88,79,59,30.15,29.97,8,3,14,0.00
2013-3-27,45.0,37.0,29.1,30.0,27.2,24.8,85,69,51,30.24,30.15,11,5,20,0.01
2013-3-28,50.2,38.4,29.8,31.2,26.7,24.0,81,64,44,30.31,30.24,10,4,17,0.00
2013-3-29,50.5,26.0,29.0,28.3,-24.9,-99.9,78,30,37,30.32,30.23,6,-401,12,0.00
2013-3-30,55.3,29.6,23.9,32.1,-21.6,-99.9,93,29,28,30.25,29.93,7,-378,14,0.00
2013-3-31,55.7,17.3,45.1,41.1,-53.1,-99.9,80,21,50,29.93,29.63,10,-657,17,0.00